Temperature
17 16 16 16 15 15 15 15 15 14 15 14 14 14 14 14 14 14 14 14 14 14 14 14 14 14 13 13 13 13 13 13 13 13 13 13 13 13 13 13 13 13 13
17 16 16 16 15 15 15 15 15 14 14 14 14 14 14 14 14 14 14 14 14 14 14 13 13 13 13 13 13 13 13 13 13 13 13 14 14 13 13 13 12 12 12
17 17 16 16 15 15 15 15 15 14 14 14 14 14 14 14 14 14 14 13 13 13 13 13 13 13 13 13 13 13 13 13 12 13 13 14 14 13 13 12 12 12 12
17 16 16 15 15 15 15 15 14 14 14 14 14 14 14 13 13 13 13 13 13 13 13 13 13 13 13 13 12 12 12 12 12 12 12 12 12 13 13 12 12 12 12
16 16 16 15 15 15 15 14 14 14 14 14 14 14 13 13 13 13 13 13 13 13 13 13 13 12 12 12 12 12 12 12 12 12 12 12 12 12 13 12 12 12 11
16 16 15 15 15 15 15 14 14 14 14 14 14 13 13 13 13 13 13 13 13 13 13 12 12 12 12 12 12 12 12 12 12 12 12 12 12 12 12 12 12 12 11
16 15 15 15 15 15 15 14 14 14 14 14 13 13 13 13 13 13 13 12 12 12 12 12 12 12 12 12 12 12 11 12 12 11 12 11 11 11 11 12 12 11 11
16 15 15 15 15 15 15 14 14 14 14 13 13 13 13 13 13 13 13 12 12 12 12 12 12 12 11 11 11 11 11 11 11 11 11 11 11 11 11 11 11 11 11
16 15 15 15 14 14 14 14 14 14 13 13 13 13 13 13 13 13 12 12 12 12 12 11 11 11 11 11 11 11 11 11 11 11 11 11 11 11 11 11 11 11 11
15 15 14 14 14 14 14 14 14 13 13 13 13 13 13 13 12 12 12 12 12 12 12 11 11 11 11 11 11 11 11 11 11 11 11 11 11 11 10 10 10 11 11
15 14 14 14 14 14 13 13 13 13 13 13 13 13 13 13 12 12 12 12 12 11 11 11 11 11 11 11 11 11 11 10 11 10 10 10 10 10 10 10 10 10 10
14 14 14 13 13 13 13 13 13 13 13 12 12 12 12 12 12 12 12 12 11 11 11 11 11 11 11 10 10 10 10 10 10 10 10 10 10 10 10 10 10 10 10
13 13 13 13 13 13 13 12 12 12 12 12 12 12 12 12 12 11 11 11 11 11 10 10 10 10 10 10 10 10 10 10 10 10 10 10 10 10 10 10 10 10 10
13 13 12 12 12 12 12 12 12 12 12 12 12 12 11 11 11 11 11 11 10 10 10 10 10 10 10 10 10 10 10 10 10 10 9 9 9 9 9 10 9 9 9
12 12 12 12 12 12 12 12 12 12 12 12 11 11 11 11 11 10 10 10 10 10 10 10 10 9 9 10 10 9 9 9 9 9 9 9 9 9 9 9 9 9 9
12 12 12 12 12 12 11 11 11 11 11 11 11 11 11 10 10 10 10 10 10 10 10 9 9 9 9 9 9 9 9 9 9 9 9 9 9 9 9 9 9 9 9
12 12 12 12 11 11 11 11 11 11 11 11 11 11 10 10 10 10 10 9 9 9 9 9 9 9 9 9 9 9 9 8 9 9 9 9 9 9 9 9 9 9 9
12 11 11 11 11 11 11 11 11 11 10 10 10 10 10 10 10 9 9 9 9 9 9 9 9 9 9 9 9 9 8 8 8 8 8 8 9 9 8 8 8 9 9
11 11 11 11 11 11 10 10 10 10 10 10 10 10 10 9 9 9 9 9 8 8 8 8 8 8 8 8 8 8 8 8 8 8 8 8 8 9 8 8 8 8 8
11 10 10 10 10 10 10 10 10 10 9 9 9 9 9 9 9 9 9 8 8 8 8 8 8 8 8 8 8 8 8 8 8 8 8 8 8 8 8 8 8 8 8
10 10 10 10 10 10 10 9 9 9 9 9 9 9 9 9 8 8 8 8 8 8 8 8 8 7 7 7 8 8 7 7 7 7 8 8 8 8 8 8 8 8 8
10 10 10 10 9 9 9 9 9 9 9 9 9 8 8 8 8 8 8 8 7 7 7 7 7 7 7 7 7 7 7 7 7 7 7 8 8 8 8 8 8 8 8
9 9 9 9 9 9 9 9 8 8 8 8 8 8 8 8 8 7 7 7 7 7 7 7 7 7 7 7 7 7 7 7 7 7 7 7 7 7 7 7 7 7 7
9 9 9 9 9 9 9 8 8 8 8 7 7 7 7 7 7 7 7 7 7 6 6 6 6 6 6 7 7 7 7 7 7 7 7 7 7 7 7 7 7 7 7
8 8 8 8 8 8 8 8 7 7 7 7 7 7 7 7 7 6 6 6 6 6 6 6 6 6 6 6 7 6 6 6 6 6 6 6 6 6 6 6 7 6 6
8 8 8 8 8 7 7 7 7 7 7 7 6 6 6 6 6 6 6 6 6 6 6 6 6 6 6 6 6 6 6 6 6 6 6 6 6 6 6 6 6 6 6
Wind_Speed
6 6 5 5 5 4 4 5 5 4 4 3 2 2 2 2 3 3 4 4 4 4 5 3 3 3 3 3 3 3 3 3 2 2 2 2 3 4 3 3 4 5 6
7 7 6 6 5 5 5 5 4 4 4 2 2 2 2 2 3 3 3 3 3 4 3 3 3 3 2 2 3 2 1 2 2 2 2 0 1 2 3 3 3 4 4
8 8 7 7 6 5 5 5 5 5 4 3 2 2 2 2 2 2 2 2 2 3 3 3 3 2 2 1 1 1 1 1 2 3 2 2 1 2 1 3 2 3 4
7 7 7 7 7 6 5 5 5 5 4 4 3 2 2 1 1 1 1 1 2 2 2 2 2 2 2 1 1 1 1 1 1 2 2 3 2 2 1 1 2 3 4
7 7 7 7 7 6 6 5 5 5 4 3 3 2 1 1 1 0 1 1 1 1 1 1 1 1 1 1 1 1 2 2 2 2 1 2 1 3 2 2 1 2 2
7 6 7 6 6 6 5 5 5 5 4 3 3 3 2 1 1 0 0 0 0 1 1 1 1 1 1 1 1 2 2 2 2 2 2 2 2 2 2 2 2 2 2
7 6 7 7 6 6 6 5 6 5 4 4 4 3 2 2 2 1 1 1 1 1 1 1 1 1 1 2 2 2 2 2 2 2 2 2 3 2 2 2 2 2 2
6 6 7 7 7 6 6 6 6 5 4 4 4 3 3 2 1 2 1 1 1 1 1 2 1 1 1 2 1 2 2 2 2 3 2 2 2 2 2 2 2 2 2
5 6 6 7 6 6 6 6 6 5 5 4 4 3 3 3 2 2 1 1 1 1 1 2 2 2 1 2 2 2 2 3 3 2 2 2 2 2 2 2 3 3 3
4 5 5 6 6 6 6 6 6 5 5 4 3 2 3 2 2 2 2 2 2 1 2 2 2 2 2 2 2 2 2 3 2 2 2 2 2 2 2 2 3 3 3
3 4 4 5 5 5 5 5 5 5 4 4 3 3 2 2 2 2 2 2 2 2 2 2 2 2 2 2 2 2 2 2 2 2 2 2 2 2 1 2 2 2 2
2 3 3 4 4 4 4 4 5 5 4 4 3 3 2 2 2 2 2 2 2 2 2 2 2 2 2 3 2 2 2 2 2 2 2 2 1 2 2 2 2 2 2
3 3 3 3 3 4 4 4 4 4 4 4 4 3 3 2 2 2 2 2 2 2 2 2 2 2 2 2 3 3 3 2 2 2 2 3 3 3 3 3 3 2 2
3 2 2 2 2 3 3 3 3 3 3 3 3 3 3 2 2 2 2 2 2 2 2 2 2 2 2 3 3 3 3 3 3 3 3 3 3 4 4 3 3 2 3
2 2 1 1 2 2 3 3 3 3 3 3 2 2 2 2 2 2 2 2 2 2 2 2 2 2 2 2 3 3 3 3 3 3 3 3 4 5 4 3 3 3 3
2 2 1 1 1 1 2 3 3 3 3 3 2 2 2 2 2 2 2 2 2 2 2 2 2 2 2 2 4 5 4 4 4 4 4 4 3 4 4 4 5 4 4
3 2 2 2 2 2 2 2 3 3 3 3 2 2 2 2 2 2 2 2 2 2 2 3 3 3 2 2 3 5 5 5 5 5 5 4 4 4 5 5 6 6 6
3 3 2 2 2 2 2 2 3 3 3 3 2 2 2 2 2 2 2 3 3 3 3 3 3 4 3 2 3 5 6 5 5 5 5 5 5 4 5 5 4 5 5
3 3 3 3 3 2 2 2 3 3 3 2 3 2 3 2 2 2 3 3 3 3 3 3 4 4 4 2 4 5 5 5 5 5 5 5 6 4 5 5 5 5 4
2 2 2 3 3 3 3 3 3 3 2 2 3 3 3 3 3 3 3 3 3 3 3 3 4 5 5 3 4 6 4 5 5 5 5 4 6 5 5 6 6 6 5
2 2 2 2 2 3 3 3 3 3 3 2 2 2 3 3 3 3 2 2 3 3 3 4 4 4 4 3 3 5 5 5 5 5 4 4 4 6 6 6 6 6 5
2 2 2 2 2 3 4 4 3 3 2 2 2 2 2 2 2 2 2 2 2 3 3 3 4 3 3 4 4 5 6 7 6 5 5 4 4 5 6 5 5 5 5
2 2 2 2 2 2 3 3 3 2 2 2 3 2 2 2 2 2 2 2 2 2 3 3 3 3 3 3 4 5 6 7 6 5 5 5 4 5 5 5 5 5 4
0 2 2 2 2 2 3 3 2 3 3 3 3 2 2 2 2 2 2 2 2 2 3 3 3 4 4 3 3 4 4 5 5 5 4 5 5 5 5 4 4 5 4
1 1 2 2 2 2 2 3 3 3 4 3 3 2 2 2 2 2 2 3 2 2 3 4 4 4 4 4 6 5 5 4 4 5 4 4 3 3 4 4 4 4 4
1 2 2 2 3 2 3 3 3 4 4 3 2 2 2 2 2 2 2 2 3 3 4 5 6 5 5 6 6 7 7 7 5 4 4 4 4 4 4 4 4 4 4
Wind_Direction
182 176 173 165 160 153 145 136 132 127 122 116 111 101 94 84 73 64 60 64 66 65 66 61 67 59 58 58 66 66 68 57 41 44 51 76 67 60 51 38 33 38 34
187 180 178 173 172 164 159 153 148 142 137 128 120 115 108 95 74 70 64 60 68 68 67 63 60 65 66 61 64 65 46 45 12 349 335 15 99 55 42 38 29 28 32
197 186 184 181 178 177 174 169 164 157 152 141 126 121 116 117 102 87 68 53 55 65 65 60 61 60 62 62 43 39 23 9 13 2 345 328 360 1 48 29 31 28 18
198 191 185 184 184 185 184 178 171 165 157 152 155 158 157 142 100 84 75 63 53 51 52 51 56 60 39 32 10 20 1 341 346 6 3 351 343 302 325 20 28 22 18
198 195 190 189 187 181 183 183 175 169 165 165 161 180 166 142 122 114 80 48 52 34 23 21 44 22 4 0 360 354 334 330 330 334 338 348 326 297 298 304 334 8 22
192 194 190 185 181 173 175 180 179 175 175 179 179 188 177 172 170 197 252 265 115 1 10 354 342 329 330 326 325 328 314 319 324 314 303 297 299 301 307 294 300 333 359
186 185 183 181 178 173 172 177 178 181 181 187 192 198 197 203 207 220 241 267 265 280 307 311 308 312 315 318 309 304 308 304 305 301 305 308 306 295 294 289 290 304 304
183 182 183 181 179 177 178 178 180 184 187 198 204 207 204 217 229 243 250 260 281 288 294 298 304 308 310 306 311 302 311 311 300 297 303 302 308 300 285 288 283 282 286
182 182 180 179 179 180 183 182 182 185 191 205 211 212 214 224 240 252 253 258 272 292 288 285 291 291 296 298 295 295 304 311 308 298 292 294 308 297 290 289 280 282 280
174 175 177 178 179 181 183 181 184 187 189 197 207 216 219 224 236 241 248 259 274 282 273 267 274 278 281 283 285 295 308 306 315 307 293 292 294 300 292 289 285 283 277
173 169 172 174 174 174 176 178 183 186 185 191 197 199 207 214 220 232 248 258 271 273 267 259 261 267 269 268 265 278 292 302 311 309 297 285 288 297 295 293 278 278 278
149 154 159 164 170 171 173 178 185 187 188 191 195 198 199 205 214 229 242 252 266 270 266 263 263 271 278 277 275 278 287 293 303 312 307 301 294 280 286 283 265 258 260
127 131 142 155 169 172 175 177 181 184 182 185 191 193 196 202 218 233 243 250 262 266 260 260 264 275 283 280 280 281 282 283 287 291 289 286 289 278 274 268 255 251 251
134 130 136 146 160 176 177 175 176 171 173 180 185 192 198 202 215 227 239 253 260 266 266 271 273 279 283 280 278 284 280 282 286 285 282 284 283 280 280 265 254 246 246
151 150 153 154 155 164 179 176 170 168 169 172 183 199 205 205 212 225 238 244 255 263 266 266 269 277 279 287 285 278 279 282 285 287 287 292 305 309 301 284 263 245 244
201 200 195 174 179 178 187 184 175 173 171 174 182 186 202 205 214 227 237 248 260 266 264 261 264 271 278 321 311 296 276 280 280 280 280 280 272 276 278 283 287 278 259
215 217 218 208 207 211 200 188 179 174 172 172 173 181 204 214 223 229 234 248 259 266 270 266 267 269 275 302 296 290 281 275 278 278 277 278 277 276 273 250 250 254 265
218 223 223 215 213 209 203 184 175 177 179 181 185 198 220 229 233 236 247 255 259 260 266 276 275 275 278 282 282 280 266 269 270 273 275 275 279 279 288 271 259 259 254
222 216 212 208 200 188 184 179 175 180 186 197 205 212 220 225 230 236 249 258 262 262 267 274 279 278 277 278 276 274 266 266 268 269 271 276 280 297 294 272 262 261 260
215 206 200 198 194 185 178 183 186 189 206 220 224 223 225 227 236 242 248 255 260 262 268 273 277 279 283 288 278 273 263 267 269 268 267 277 288 301 287 262 262 263 267
188 189 193 198 199 187 184 192 198 214 222 225 226 224 228 236 244 246 248 254 259 263 269 273 278 281 285 278 278 279 269 271 274 272 272 275 283 281 274 264 262 270 278
181 186 192 204 207 197 195 200 213 226 229 224 227 232 237 244 250 251 252 256 263 265 272 278 285 285 287 294 289 281 275 284 273 273 276 282 282 276 268 256 268 276 266
175 179 187 200 211 211 212 215 216 216 222 226 227 234 242 241 237 240 252 257 263 272 278 281 288 296 299 302 300 285 278 279 274 279 296 300 290 275 264 256 254 253 251
194 184 188 201 218 226 228 233 218 215 215 224 230 230 236 245 231 235 245 254 259 272 279 284 288 291 290 297 308 301 292 281 278 281 280 269 263 260 275 272 244 241 245
257 228 222 228 238 233 230 231 216 212 219 223 230 235 239 250 245 243 257 254 253 271 275 277 279 282 281 302 318 304 294 294 291 290 282 278 274 264 261 267 257 243 238
265 257 255 251 247 238 237 236 223 218 220 221 228 236 242 254 262 261 268 290 276 286 285 295 295 289 302 318 310 300 298 299 292 278 275 274 270 268 267 266 265 251 244
Height
1538 1539 1540 1541 1542 1543 1544 1544 1544 1545 1545 1545 1546 1546 1546 1546 1546 1545 1545 1545 1545 1545 1544 1544 1544 1543 1543 1542 1542 1541 1541 1540 1539 1539 1538 1538 1537 1537 1535 1535 1534 1533 1532
1536 1537 1539 1540 1541 1542 1543 1544 1544 1545 1545 1545 1546 1546 1546 1546 1546 1546 1545 1545 1545 1545 1545 1545 1544 1544 1543 1542 1542 1541 1541 1541 1540 1540 1539 1539 1539 1537 1536 1535 1534 1533 1532
1533 1535 1537 1538 1539 1541 1542 1543 1544 1544 1545 1545 1546 1546 1546 1546 1546 1546 1545 1545 1545 1545 1545 1545 1545 1544 1544 1543 1542 1542 1541 1541 1541 1540 1541 1540 1538 1538 1537 1536 1534 1533 1532
1531 1533 1534 1536 1537 1539 1540 1542 1543 1544 1545 1545 1546 1546 1546 1547 1547 1546 1546 1546 1545 1545 1545 1544 1544 1544 1543 1543 1542 1542 1541 1541 1541 1540 1539 1540 1539 1539 1537 1537 1535 1533 1532
1529 1530 1532 1533 1536 1537 1538 1540 1542 1543 1544 1545 1545 1546 1546 1546 1546 1546 1546 1545 1545 1544 1544 1544 1543 1543 1543 1542 1541 1541 1540 1540 1540 1540 1539 1538 1538 1538 1537 1536 1536 1534 1532
1526 1528 1530 1532 1534 1535 1536 1538 1540 1541 1543 1543 1544 1545 1545 1545 1545 1545 1545 1545 1544 1544 1544 1543 1543 1542 1542 1541 1540 1540 1539 1539 1539 1538 1538 1538 1537 1537 1536 1535 1535 1534 1532
1524 1526 1528 1529 1531 1533 1534 1536 1538 1540 1541 1542 1543 1544 1545 1545 1545 1545 1544 1544 1544 1543 1543 1542 1542 1541 1540 1540 1539 1539 1538 1538 1537 1537 1537 1536 1536 1535 1535 1535 1534 1533 1532
1522 1523 1525 1527 1529 1531 1533 1534 1536 1538 1539 1541 1542 1543 1543 1543 1544 1544 1543 1543 1543 1542 1542 1541 1540 1540 1539 1539 1538 1537 1537 1537 1536 1536 1535 1534 1534 1534 1533 1533 1533 1532 1532
1520 1522 1523 1525 1527 1529 1531 1532 1534 1536 1538 1539 1540 1541 1541 1542 1542 1542 1542 1542 1541 1541 1540 1540 1539 1539 1538 1537 1537 1536 1536 1535 1534 1534 1534 1533 1532 1532 1531 1531 1532 1532 1530
1519 1520 1522 1523 1525 1527 1529 1531 1533 1534 1536 1537 1538 1539 1539 1539 1540 1540 1540 1540 1540 1539 1538 1538 1538 1537 1537 1536 1535 1535 1534 1533 1532 1532 1532 1531 1530 1530 1529 1529 1529 1529 1529
1518 1519 1520 1522 1524 1526 1528 1529 1531 1533 1534 1535 1536 1536 1537 1537 1538 1538 1538 1538 1538 1537 1537 1536 1536 1536 1535 1534 1534 1533 1533 1532 1531 1530 1530 1529 1529 1528 1528 1528 1527 1527 1527
1517 1518 1519 1521 1522 1524 1526 1527 1529 1530 1531 1533 1534 1535 1535 1535 1536 1536 1536 1536 1536 1535 1535 1535 1534 1534 1533 1533 1532 1531 1531 1530 1529 1529 1528 1528 1527 1527 1526 1526 1525 1525 1525
1516 1517 1518 1519 1521 1522 1523 1525 1526 1528 1529 1531 1532 1533 1533 1533 1534 1534 1534 1534 1534 1533 1533 1533 1532 1532 1531 1531 1531 1530 1529 1528 1528 1527 1527 1526 1526 1525 1524 1524 1523 1523 1523
1515 1516 1517 1518 1519 1520 1522 1523 1524 1525 1527 1528 1529 1530 1530 1531 1531 1532 1532 1532 1532 1532 1531 1531 1530 1530 1529 1529 1529 1528 1527 1526 1526 1525 1525 1524 1524 1523 1523 1522 1521 1521 1521
1514 1515 1516 1517 1518 1519 1520 1521 1522 1523 1525 1526 1527 1528 1528 1529 1529 1529 1530 1530 1529 1529 1529 1529 1528 1528 1527 1527 1527 1526 1525 1524 1524 1523 1522 1522 1521 1521 1520 1520 1519 1519 1519
1513 1514 1515 1515 1516 1517 1518 1519 1520 1521 1522 1523 1525 1525 1526 1526 1527 1527 1527 1527 1527 1527 1527 1526 1526 1525 1525 1524 1524 1524 1523 1522 1521 1521 1520 1520 1519 1518 1517 1517 1517 1517 1516
1511 1512 1513 1513 1514 1515 1516 1517 1518 1519 1520 1521 1522 1523 1523 1524 1524 1524 1524 1524 1524 1524 1524 1524 1523 1523 1522 1522 1521 1521 1520 1520 1519 1518 1518 1517 1517 1516 1515 1514 1513 1513 1513
1509 1510 1511 1512 1512 1513 1514 1515 1516 1517 1518 1519 1519 1520 1521 1521 1521 1521 1521 1522 1522 1522 1521 1521 1521 1520 1520 1519 1518 1518 1517 1517 1516 1516 1515 1514 1514 1513 1512 1511 1510 1510 1509
1507 1508 1509 1509 1510 1511 1511 1513 1514 1515 1516 1516 1517 1518 1518 1518 1518 1518 1518 1519 1519 1519 1518 1518 1518 1517 1517 1516 1515 1515 1514 1514 1513 1512 1512 1511 1511 1510 1509 1508 1507 1506 1506
1505 1506 1506 1507 1508 1508 1509 1510 1511 1512 1513 1513 1514 1515 1515 1515 1515 1516 1516 1516 1516 1516 1515 1515 1515 1514 1514 1513 1512 1512 1512 1511 1510 1509 1508 1508 1507 1506 1505 1505 1504 1503 1502
1503 1503 1504 1505 1505 1506 1507 1508 1509 1509 1510 1511 1512 1512 1512 1512 1512 1513 1513 1513 1513 1513 1513 1512 1512 1511 1511 1510 1509 1508 1508 1507 1507 1506 1505 1504 1503 1503 1502 1501 1500 1500 1499
1500 1500 1501 1502 1503 1504 1505 1505 1506 1507 1508 1508 1509 1509 1510 1510 1510 1510 1510 1510 1510 1510 1510 1509 1509 1508 1507 1507 1506 1505 1505 1504 1503 1502 1501 1500 1499 1499 1498 1497 1497 1496 1496
1498 1498 1499 1500 1501 1502 1502 1503 1504 1504 1505 1505 1506 1506 1507 1507 1507 1507 1506 1506 1506 1507 1506 1506 1505 1505 1504 1503 1502 1502 1501 1500 1499 1498 1497 1496 1495 1495 1494 1493 1493 1492 1492
1497 1497 1498 1498 1499 1499 1500 1501 1501 1502 1502 1502 1503 1503 1503 1503 1504 1504 1504 1503 1503 1503 1503 1503 1502 1501 1501 1500 1499 1498 1497 1496 1495 1494 1493 1492 1491 1490 1490 1489 1489 1488 1488
1496 1496 1496 1496 1497 1497 1497 1498 1499 1499 1500 1500 1500 1500 1500 1500 1500 1500 1500 1500 1500 1500 1500 1499 1498 1498 1497 1496 1496 1495 1494 1493 1492 1490 1489 1488 1487 1486 1485 1485 1484 1484 1484
1494 1494 1495 1495 1495 1495 1495 1495 1496 1496 1497 1497 1497 1497 1497 1497 1497 1497 1497 1497 1497 1497 1496 1496 1495 1494 1494 1492 1491 1491 1490 1489 1488 1487 1485 1484 1483 1482 1481 1480 1480 1480 1479